Location: Silent Lake
(44.9206°N, 78.0708°W)
Time: 14:19:52
(UTC-04:00)

Cosmos 220 Rocket - Pass Details

Date: 19 April 2018
Orbit: 575 x 618 km, 74.0° (Epoch: 20 September)

Event Time Altitude Azimuth Distance (km) Brightness Sun altitude
Rises 21:08:39 0° 341° (NNW) 2,872 8.3 -11.5°
Reaches altitude 10° 21:10:56 10° 344° (NNW) 1,957 7.3 -11.9°
Maximum altitude 21:15:16 65° 67° (ENE) 659 4.0 -12.5°
Enters shadow 21:18:27 17° 147° (SSE) 1,500 5.5 -13.0°
